Regional Weather Roundup
Issued by NWS

Home | Current Version | Previous Version | Text Only | Print | Product List | Glossary On
Versions: 1 2 3 4 5 6 7 8 9 10 11 12 13 14 15 16 17 18 19 20 21 22 23 24 25 26 27 28 29 30 31 32 33 34 35 36 37 38 39 40 41 42 43 44 45 46 47 48 49 50
000
ASCA44 KEWX 100720
RWRMX

LATIN AMERICA AND CARIBBEAN REGIONAL WEATHER ROUNDUP
NATIONAL WEATHER SERVICE AUSTIN/SAN ANTONIO TX
200 AM CDT THU JUL 10 2014

NOTE: "FAIR" INDICATED FEW OR NO CLOUDS BELOW 12,000 FEET WITH NO
SIGNIFICANT WEATHER AND/OR OBSTRUCTIONS TO VISIBILITY.

BAJA CALIFORNIA

CITY           SKY/WX    TMP DP  RH WIND       PRES   REMARKS
LA PAZ           N/A    N/A N/A N/A MISG        N/A
TIJUANA        PTCLDY    64  57  77 NW6       29.98S

NORTHWESTERN MEXICO

CITY           SKY/WX    TMP DP  RH WIND       PRES   REMARKS
DURANGO        MOCLDY    61  57  88 S8        30.25F
HERMOSILLO     MOCLDY    82  75  78 CALM      29.94

NORTHEASTERN MEXICO

CITY           SKY/WX    TMP DP  RH WIND       PRES   REMARKS
MONTERREY      MOCLDY    72  61  68 E6        30.01F
REYNOSA        CLOUDY    72  66  83 SE6       30.01
SALTILLO       MOCLDY    63  61  94 N7        30.19S FOG
CD. VICTORIA   MOCLDY    72  66  83 SE5       30.00

WESTERN MEXICO

CITY           SKY/WX    TMP DP  RH WIND       PRES   REMARKS
DEL BAJIO      CLOUDY    59  57  94 CALM      30.32F
GUADALAJARA    MOCLDY    66  57  72 NW7       30.19
MAZATLAN       MOCLDY    77  70  78 N8        29.89F
P. VALLARTA    MOCLDY    81  75  83 CALM      29.90
ZACATECAS      MOCLDY    59  52  77 CALM      30.30F

CENTRAL MEXICO

CITY           SKY/WX    TMP DP  RH WIND       PRES   REMARKS
MEXICO CITY    CLOUDY    59  54  82 N3        30.39F
MORELIA        CLOUDY    61  59  94 CALM      30.29
QUERETARO      CLOUDY    59  57  94 CALM      30.35S
S. LUIS POTOSI MOCLDY    61  57  88 S6        30.27F
TOLUCA         MOCLDY    52  48  87 NE5       30.46F

SOUTHERN MEXICO

CITY           SKY/WX    TMP DP  RH WIND       PRES   REMARKS
ACAPULCO       CLOUDY    81  77  89 CALM      29.87S

YUCATAN PENINSULA

CITY           SKY/WX    TMP DP  RH WIND       PRES   REMARKS
CANCUN         PTCLDY    81  77  89 CALM      30.04F
COZUMEL        CLEAR     73  73 100 CALM      30.04F
MERIDA         CLEAR     77  68  73 SE8       30.04F
TAPACHULA      PTCLDY    81  75  83 CALM      29.90F

CENTRAL AMERICA

CITY           SKY/WX    TMP DP  RH WIND       PRES   REMARKS

CARIBBEAN

CITY           SKY/WX    TMP DP  RH WIND       PRES   REMARKS
KINGSTON       PTCLDY    82  70  65 N9        29.97S
SAN JUAN       PTCLDY    81  73  78 E6        30.05F
SANTO DOMINGO  PTCLDY    75  73  94 NE7       30.00F
ST. MAARTEN    PTCLDY    81  72  74 E12       30.03F
ST. THOMAS     CLEAR     79  73  83 E7        30.04F

$$



USA.gov is the U.S. government's official web portal to all federal, state and local government web resources and services.